TimePDT,TemperatureF,Dew PointF,Humidity,Sea Level PressureIn,VisibilityMPH,Wind Direction,Wind SpeedMPH,Gust SpeedMPH,PrecipitationIn,Events,Conditions,WindDirDegrees,DateUTC
12:56 AM,55.9,48.0,75,29.87,10.0,WNW,8.1,-,N/A,,Partly Cloudy,300,2013-06-04 07:56:00
1:56 AM,55.0,48.0,77,29.87,10.0,West,9.2,-,N/A,,Partly Cloudy,280,2013-06-04 08:56:00
2:56 AM,55.0,48.0,77,29.87,10.0,West,9.2,-,N/A,,Partly Cloudy,280,2013-06-04 09:56:00
3:56 AM,54.0,48.0,80,29.87,10.0,WNW,10.4,-,N/A,,Partly Cloudy,290,2013-06-04 10:56:00
4:56 AM,54.0,48.0,80,29.87,10.0,West,8.1,-,N/A,,Partly Cloudy,270,2013-06-04 11:56:00
5:56 AM,54.0,48.0,80,29.89,10.0,WNW,6.9,-,N/A,,Scattered Clouds,290,2013-06-04 12:56:00
6:29 AM,53.6,48.2,82,29.90,10.0,WNW,5.8,-,N/A,,Mostly Cloudy,290,2013-06-04 13:29:00
6:56 AM,55.0,48.9,80,29.91,10.0,West,6.9,-,N/A,,Mostly Cloudy,280,2013-06-04 13:56:00
7:56 AM,55.9,48.9,77,29.93,10.0,South,3.5,-,N/A,,Mostly Cloudy,190,2013-06-04 14:56:00
8:56 AM,59.0,50.0,72,29.93,10.0,SSE,3.5,-,N/A,,Mostly Cloudy,160,2013-06-04 15:56:00
9:56 AM,62.1,51.1,67,29.94,10.0,NNW,9.2,-,N/A,,Mostly Cloudy,340,2013-06-04 16:56:00
10:11 AM,62.6,51.8,68,29.94,10.0,North,5.8,-,N/A,,Scattered Clouds,360,2013-06-04 17:11:00
10:56 AM,62.1,51.1,67,29.95,10.0,NE,5.8,-,N/A,,Scattered Clouds,40,2013-06-04 17:56:00
11:56 AM,63.0,52.0,67,29.95,10.0,NE,6.9,-,N/A,,Scattered Clouds,40,2013-06-04 18:56:00
12:56 PM,64.0,52.0,65,29.95,10.0,NE,6.9,-,N/A,,Partly Cloudy,40,2013-06-04 19:56:00
1:56 PM,66.0,52.0,60,29.94,10.0,NE,5.8,-,N/A,,Partly Cloudy,50,2013-06-04 20:56:00
2:56 PM,68.0,50.0,52,29.94,10.0,WSW,8.1,-,N/A,,Partly Cloudy,240,2013-06-04 21:56:00
3:56 PM,66.9,50.0,54,29.94,10.0,West,16.1,-,N/A,,Partly Cloudy,260,2013-06-04 22:56:00
4:56 PM,66.0,48.9,54,29.94,10.0,Variable,6.9,-,N/A,,Partly Cloudy,0,2013-06-04 23:56:00
5:56 PM,64.9,48.9,56,29.93,10.0,WSW,11.5,-,N/A,,Partly Cloudy,250,2013-06-05 00:56:00
6:56 PM,64.0,48.9,58,29.93,10.0,WSW,12.7,-,N/A,,Partly Cloudy,250,2013-06-05 01:56:00
7:56 PM,60.1,48.9,67,29.94,10.0,WNW,15.0,-,N/A,,Partly Cloudy,290,2013-06-05 02:56:00
8:56 PM,57.9,48.0,70,29.95,10.0,West,11.5,-,N/A,,Partly Cloudy,270,2013-06-05 03:56:00
9:56 PM,57.0,48.9,74,29.96,10.0,WNW,13.8,-,N/A,,Partly Cloudy,290,2013-06-05 04:56:00
10:56 PM,55.9,48.0,75,29.97,10.0,WNW,17.3,-,N/A,,Partly Cloudy,290,2013-06-05 05:56:00
11:56 PM,55.9,48.0,75,29.99,10.0,West,16.1,-,N/A,,Partly Cloudy,270,2013-06-05 06:56:00